Meteo Giornale » Osservazioni meteo Italia » Milano-Linate

ore: 09:50 - Osservazioni Meteo Milano-Linate
Lat. 45° 26' N Lon. 9° 17' E Alt. 107 metri s.l.m.

molto_nuvoloso Europe/Rome

10 °C

Molto Nuvoloso

Temp. 24 Ore

10 °C

20 °C

Nord

3.7 Km/h

Dew point 10 °C

Umidità 100 %

Visibilità  10 Km

Il sole sorge alle ore 06:11

Il sole tramonta alle ore 18:45

Data e Ora Cielo e Fenomeni T °C DP °C Um. % Pres. hPa Vis. km Vento km/h
Oggi h: 09:50 molto_nuvoloso Molto Nuvoloso 10 10 100 1018 10 N 3.7
Oggi h: 09:20 molto_nuvoloso Molto Nuvoloso 10 9 93 1018 10 N 3.7
Oggi h: 08:50 molto_nuvoloso Molto Nuvoloso 10 9 93 1018 9 N 5.5
Oggi h: 08:20 molto_nuvoloso Molto Nuvoloso 10 9 93 1018 9 N 7.4
Oggi h: 07:50 molto_nuvoloso Molto Nuvoloso 10 9 93 1018 7 N 3.7
Oggi h: 07:20 molto_nuvoloso Molto Nuvoloso 10 9 93 1017 7 N 7.4
Oggi h: 06:50 coperto_pioggia Pioggia Debole 10 9 93 1017 10 N/NO 7.4
Oggi h: 06:20 coperto_pioggia Pioggia Debole 10 8 87 1017 10 O/NO 7.4
Oggi h: 05:50 coperto_pioggia Pioggia Debole 10 9 93 1017 10 N 5.5
Oggi h: 05:20 coperto_pioggia Pioggia 10 9 93 1017 10 N 7.4
Oggi h: 04:50 coperto_pioggia Pioggia 10 9 93 1017 10 N 5.5
Oggi h: 04:20 coperto_pioggia Pioggia 10 9 93 1017 10 N 3.7
Oggi h: 03:50 coperto_pioggia Pioggia 10 9 93 1017 10 N 3.7
Oggi h: 03:20 coperto_pioggia Pioggia 10 9 93 1017 7 O 7.4
Oggi h: 03:50 coperto_pioggia Pioggia 10 9 93 1018 7 N 9.3
Oggi h: 03:20 coperto_pioggia Pioggia 10 9 93 1018 7 O 9.3
Oggi h: 01:50 coperto_pioggia Pioggia 10 9 93 1018 7 O 13
Oggi h: 01:20 coperto_pioggia Pioggia Debole 11 8 81 1018 10 O/SO 13
Oggi h: 00:50 coperto_pioggia Pioggia Debole 12 9 81 1018 10 O 14.8
Oggi h: 00:20 coperto_pioggia Pioggia Debole 11 9 87 1018 10 O 11.1
Ieri h: 23:50 coperto_pioggia Pioggia Debole 12 10 87 1018 6 O/SO 16.7
Ieri h: 23:20 coperto_pioggia Pioggia Debole 13 13 100 1017 6 O 7.4
Ieri h: 22:50 coperto_pioggia Pioggia 13 13 100 1017 5 SO 7.4
Ieri h: 22:20 coperto_pioggia Pioggia 13 13 100 1018 5 S 16.7
Ieri h: 21:50 coperto_pioggia Pioggia Debole 14 13 93 1017 5 SE 7.4
Ieri h: 21:20 coperto_pioggia Pioggia Temporale nelle Vicinanze 14 13 93 1017 5 S 9.3
Ieri h: 20:50 nuvoloso_temporali Temporale nelle Vicinanze 15 14 93 1017 5 S 7.4
Ieri h: 20:20 coperto_pioggia Pioggia Debole Temporale nelle Vicinanze 16 14 87 1017 6 N 3.7
Ieri h: 19:50 coperto_pioggia Pioggia Debole 16 13 82 1016 6 N 5.5
Ieri h: 19:20 nuvoloso Nuvoloso 17 12 72 1017 6 O/SO 7.4
Ieri h: 18:50 nuvoloso Nuvoloso 17 12 72 1016 9 O/SO 7.4
Ieri h: 18:20 nuvoloso Nuvoloso 18 12 67 1016 9 O/SO 11.1
Ieri h: 17:50 nuvoloso Nuvoloso 18 10 59 1016 9 S 13
Ieri h: 17:20 sereno Sereno 19 10 55 1016 10 S/SE 13
Ieri h: 16:50 sereno Sereno 20 10 52 1016 10 SE 14.8
Ieri h: 16:20 sereno Sereno 20 11 56 1016 10 E 11.1
Ieri h: 15:50 sereno Sereno 20 11 56 1017 10 E/SE 9.3
Ieri h: 15:20 sereno Sereno 20 11 56 1017 10 N 7.4
Ieri h: 14:50 sereno Sereno 20 12 59 1018 10 S/SE 7.4
Ieri h: 14:20 sereno Sereno 19 11 59 1019 10 S/SE 11.1
Ieri h: 13:20 sereno Sereno 19 11 59 1020 10 SE 11.1
Ieri h: 12:50 sereno Sereno 19 11 59 1021 10 N 7.4
Ieri h: 12:20 sereno Sereno 18 11 63 1021 10 E/SE 7.4
Ieri h: 11:50 sereno Sereno 18 11 63 1021 10 E 11.1
Ieri h: 11:20 sereno Sereno 17 12 72 1022 10 E 11.1
Ieri h: 10:50 sereno Sereno 16 11 72 1022 10 E/NE 7.4